This demonstration page uses our WeatherBlox Daily Observations layout. Learn more.

36.19886, -115.1175

Hourly Observations for November 29, 2018

Temp ( °F °C ) Dew Point ( °F °C ) Humidity (%) Winds ( mph kmh ) Pressure ( in mb ) Visibility ( mi km ) Precip ( " mm )
12:53 am 00:53 Clear 51 10.6 31 -0.6 46 46 Calm 29.8 1009 10 16.09344 0 0
1:53 am 01:53 Clear 52 11.1 31 -0.6 45 45 ESE 6 9 29.8 1009 10 16.09344 0 0
2:53 am 02:53 Mostly Cloudy 51 10.6 34 1.1 52 52 ESE 5 7 29.8 1009 10 16.09344 0 0
3:53 am 03:53 Mostly Cloudy 52 11.1 35 1.7 53 53 SW 3 6 29.77 1008 10 16.09344 0 0
4:53 am 04:53 Cloudy 51 10.6 39 3.9 64 64 Calm 29.77 1008 10 16.09344 0.001 0.001
5:53 am 05:53 Cloudy 52 11.1 35 1.7 53 53 Calm 29.77 1008 10 16.09344 0 0
6:53 am 06:53 Cloudy with Light Rain 52 11.1 37 2.8 57 57 Calm 29.74 1007 10 16.09344 0.001 0.001
7:53 am 07:53 Cloudy 54 12.2 36 2.2 51 51 E 7 11 29.74 1007 10 16.09344 0.001 0.001
8:53 am 08:53 Mostly Cloudy 56 13.3 33 0.6 42 42 E 10 17 29.74 1007 10 16.09344 0 0
9:53 am 09:53 Mostly Cloudy 58 14.4 30 -1.1 35 35 ESE 5 7 29.71 1006 10 16.09344 0 0
10:53 am 10:53 Cloudy with Light Rain 59 15 32 0 36 36 N 6 9 29.68 1005 10 16.09344 0.001 0.001
11:53 am 11:53 Cloudy with Light Rain 53 11.7 45 7.2 74 74 WNW 12 19 29.68 1005 10 16.09344 0.01 0.254
12:53 pm 12:53 Cloudy with Light Rain 53 11.7 45 7.2 74 74 NNE 3 6 29.65 1004 6 9.656064 0.04 1.016
1:36 pm 13:36 Cloudy with Rain 51 10.6 47 8.3 86 86 Calm 29.62 1003 2.5 4.02336 0.06 1.524
1:46 pm 13:46 Cloudy with Light Rain 51 10.6 47 8.3 86 86 Calm 29.62 1003 5 8.04672 0.08 2.032
1:53 pm 13:53 Cloudy with Light Rain 52 11.1 47 8.3 83 83 SSW 7 11 29.65 1004 6 9.656064 0.08 2.032
2:53 pm 14:53 Partly Cloudy 54 12.2 43 6.1 67 67 WSW 15 24 29.62 1003 10 16.09344 0.02 0.508
3:53 pm 15:53 Sunny 54 12.2 43 6.1 67 67 SE 8 13 29.62 1003 10 16.09344 0 0
4:53 pm 16:53 Mostly Clear 52 11.1 44 6.7 75 75 Calm 29.62 1003 10 16.09344 0 0
5:53 pm 17:53 Clear 55 12.8 36 2.2 49 49 SW 16 26 29.59 1002 10 16.09344 0 0
6:53 pm 18:53 Clear 55 12.8 36 2.2 49 49 SSW 10 17 29.59 1002 10 16.09344 0 0
7:53 pm 19:53 Mostly Clear 55 12.8 37 2.8 51 51 WSW 10 17 29.59 1002 10 16.09344 0 0
8:53 pm 20:53 Clear 54 12.2 37 2.8 53 53 SSW 15 24 29.62 1003 10 16.09344 0 0
9:53 pm 21:53 Clear 54 12.2 37 2.8 53 53 WSW 13 20 29.62 1003 10 16.09344 0 0
10:53 pm 22:53 Clear 52 11.1 38 3.3 59 59 SW 13 20 29.62 1003 10 16.09344 0 0
11:53 pm 23:53 Clear 53 11.7 37 2.8 55 55 SW 14 22 29.62 1003 10 16.09344 0 0

Powered by AerisWeather